Regional Weather Roundup
Issued by NWS

Home | Current Version | Previous Version | Graphics & Text | Print | Product List | Glossary Off
Versions: 1 2 3 4 5 6 7 8 9 10 11 12 13 14 15 16 17 18 19 20 21 22 23 24 25 26 27 28 29 30 31 32 33 34 35 36 37 38 39 40 41 42 43 44 45 46 47 48 49 50

000
ASUS43 KLMK 240810
RWRKY
KENTUCKY REGIONAL WEATHER ROUNDUP
NATIONAL WEATHER SERVICE LOUISVILLE KY
400 AM EDT FRI OCT 24 2014

NOTE "FAIR" INDICATES FEW OR NO CLOUDS BELOW 12,000 FEET
WITH NO SIGNIFICANT WEATHER AND/OR OBSTRUCTIONS TO VISIBILITY.

KYZ001>023-026-027-061>063-070>075-240900-
WESTERN AND SOUTH CENTRAL KENTUCKY

CITY           SKY/WX    TMP DP  RH WIND       PRES   REMARKS
PADUCAH        CLEAR     40  39  97 W6        30.13R FOG
HENDERSON      PTCLDY   N/A N/A N/A CALM      30.12S
OWENSBORO      PTCLDY    45  43  93 CALM      30.12S
HOPKINSVILLE   CLOUDY    48  48 100 W3        30.12R
BOWLING GREEN  PTCLDY    48  45  89 CALM      30.11F
GLASGOW        CLOUDY    44  44 100 CALM      30.11S
$$

KYZ024-025-028>034-038-045-046-053-240900-
NORTH CENTRAL KENTUCKY

CITY           SKY/WX    TMP DP  RH WIND       PRES   REMARKS
LOUISVILLE/SDF MOCLDY    48  44  86 VRB6      30.12S
LOUISVILLE/LOU MOCLDY    45  42  89 CALM      30.12S
FORT KNOX      CLOUDY    42  40  93 CALM      30.10S
$$

KYZ035>037-039>044-047>052-055>060-089>105-240900-
NORTHEAST KENTUCKY

CITY           SKY/WX    TMP DP  RH WIND       PRES   REMARKS
LEXINGTON      MOCLDY    44  40  85 CALM      30.11F
COVINGTON      MOCLDY    42  39  89 CALM      30.12R
FRANKFORT      MOCLDY    41  39  93 CALM      30.12R
$$

KYZ054-064>069-076>088-106>120-240900-
SOUTHEAST KENTUCKY

CITY           SKY/WX    TMP DP  RH WIND       PRES   REMARKS
JACKSON        CLOUDY    44  40  85 CALM      30.11F
LONDON         MOCLDY    43  40  89 CALM      30.11S
SOMERSET       CLOUDY    41  41 100 CALM      30.12S
MIDDLESBORO    MOCLDY    41  40  97 CALM      30.13S
MONTICELLO     CLOUDY    43  42  96 CALM      30.12F FOG
$$




USA.gov is the U.S. government's official web portal to all federal, state and local government web resources and services.